STARLINK-11446 [DTC]

Last updated on Thu Jan 23 2025 00:02:04 GMT+0000 (Coordinated Universal Time)

1 62416U 24249H 25022.47587201 -.00002243 00000+0 -10027-4 0 9991 2 62416 42.9975 127.5554 0001900 246.7617 113.3053 15.77844557 4798
UTC large
Height (km)
Speed (km/s)
/
Latitude / Longitude
Inclination (degrees)
Orbital Period (minutes)
Azimuth
Elevation
Range (km)
Doppler Factor

Next 0 passes for location: London (51.5072 / 0.1276)

Sorry there are no passes over London.